Tracking 28794 objects as of 21-Apr-2024
HD Live streaming from Space Station
objects crossing your sky now

LINGQIAO VIDEO A

Track LINGQIAO VIDEO A now!
10-day predictions


NORAD ID: 40959
Int'l Code: 2015-057B
Perigee: 641.2 km
Apogee: 663.9 km
Inclination: 97.7 °
Period: 97.6 minutes
Semi major axis: 7023 km
RCS: Unknown
Launch date: October 7, 2015
Source: People's Republic of China (PRC)
Launch site: Jiuquan Satellite Launch Center, China (JSC)

LINGQIAO VIDEO A is a Chinese satellite designed for video capture.
Your satellite tracking list
Your tracking list is empty




NASA's NSSDC Master Catalog

Two Line Element Set (TLE):
1 40959U 15057B   24112.83115706  .00002607  00000-0  39458-3 0  9993
2 40959  97.6709 137.1071 0016153 305.5064  54.4638 14.74920937459381
Source of the keplerian elements: AFSPC